CW5456 Weather Reports


Display with metric or nautical units.
time (UTC)temp
F
wind
direction
speed
MPH
gust
MPH
rain 1hr
in
rain 24hr
in
rain mn
in
humidity
%
barometer
mb
20180528011027 56 337 10.0 12.0 0.00 0.00 0.00 83 1020.2
20180528010530 56 332 9.0 12.0 0.00 0.00 0.00 83 1020.3
20180528010027 56 292 8.0 13.0 0.00 0.00 0.00 83 1020.3
20180528005530 56 303 8.0 15.0 0.00 0.00 0.00 83 1020.3
20180528005026 56 312 10.0 15.0 0.00 0.00 0.00 82 1020.3
20180528004526 56 341 13.0 15.0 0.00 0.00 0.00 82 1020.2
20180528004026 56 337 13.0 15.0 0.00 0.00 0.00 82 1020.3
20180528003529 56 343 14.0 15.0 0.00 0.00 0.00 83 1020.3
20180528003029 56 332 11.0 15.0 0.00 0.00 0.00 83 1020.3
20180528002526 56 342 11.0 13.0 0.00 0.00 0.00 84 1020.4
20180528002026 56 314 9.0 13.0 0.00 0.00 0.00 83 1020.5
20180528001529 56 332 10.0 12.0 0.00 0.00 0.00 82 1020.5
20180528001025 56 259 11.0 12.0 0.00 0.00 0.00 82 1020.6
20180528000529 56 327 10.0 14.0 0.00 0.00 0.00 81 1020.6
20180528000025 57 332 9.0 14.0 0.00 0.00 0.00 80 1020.6
20180527235528 57 292 12.0 14.0 0.00 0.00 0.00 79 1020.7
20180527235025 57 332 13.0 17.0 0.00 0.00 0.00 79 1020.8
20180527234524 57 299 14.0 17.0 0.00 0.00 0.00 78 1020.8
20180527234024 57 337 14.0 17.0 0.00 0.00 0.00 77 1020.8
20180527233525 57 327 14.0 17.0 0.00 0.00 0.00 77 1020.7
20180527233024 56 332 12.0 15.0 0.00 0.00 0.00 78 1020.8
20180527232527 57 282 13.0 15.0 0.00 0.00 0.00 77 1020.9
20180527232027 57 298 11.0 15.0 0.00 0.00 0.00 76 1020.9
20180527231524 57 337 14.0 15.0 0.00 0.00 0.00 74 1020.9
20180527231024 57 327 13.0 16.0 0.00 0.00 0.00 70 1021.0
20180527230523 57 332 12.0 17.0 0.00 0.00 0.00 64 1021.0
20180527230023 57 327 14.0 17.0 0.00 0.00 0.00 65 1021.1
20180527225526 57 337 14.0 17.0 0.00 0.00 0.00 65 1021.1
20180527225023 57 332 15.0 16.0 0.00 0.00 0.00 67 1021.2
20180527224525 57 341 11.0 17.0 0.00 0.00 0.00 74 1021.3
20180527224025 57 327 13.0 17.0 0.00 0.00 0.00 75 1021.3
20180527223522 56 327 11.0 17.0 0.00 0.00 0.00 76 1021.4
20180527223022 56 281 11.0 17.0 0.00 0.00 0.00 76 1021.4
20180527222522 56 337 12.0 15.0 0.00 0.00 0.00 77 1021.5
20180527222022 56 268 11.0 15.0 0.00 0.00 0.00 77 1021.5
20180527221522 56 297 13.0 17.0 0.00 0.00 0.00 77 1021.5
20180527221025 56 278 9.0 17.0 0.00 0.00 0.00 78 1021.5
20180527220525 56 327 15.0 17.0 0.00 0.00 0.00 78 1021.6
20180527220022 56 308 12.0 19.0 0.00 0.00 0.00 79 1021.5
20180527215524 56 259 15.0 19.0 0.00 0.00 0.00 79 1021.5
20180527215024 56 278 17.0 18.0 0.00 0.00 0.00 82 1021.5
20180527214521 56 287 13.0 16.0 0.00 0.00 0.00 82 1021.5
20180527214021 56 327 11.0 17.0 0.00 0.00 0.00 83 1021.5
20180527213524 55 287 14.0 17.0 0.00 0.00 0.00 83 1021.5
20180527213020 55 293 15.0 16.0 0.00 0.00 0.00 83 1021.6
20180527212520 55 304 12.0 15.0 0.00 0.00 0.00 83 1021.7
20180527212021 56 269 13.0 16.0 0.00 0.00 0.00 83 1021.6
20180527211520 56 256 8.0 16.0 0.00 0.00 0.00 84 1021.7
20180527211023 56 291 10.0 16.0 0.00 0.00 0.00 84 1021.8
20180527210523 56 284 14.0 16.0 0.00 0.00 0.00 83 1021.7
20180527210020 56 283 10.0 15.0 0.00 0.00 0.00 83 1021.7
20180527205519 56 246 12.0 14.0 0.00 0.00 0.00 83 1021.8
20180527205020 56 285 13.0 13.0 0.00 0.00 0.00 82 1021.8
20180527204522 57 291 9.0 13.0 0.00 0.00 0.00 80 1021.8
20180527204022 57 337 12.0 12.0 0.00 0.00 0.00 80 1021.8
20180527203522 57 337 8.0 12.0 0.00 0.00 0.00 82 1021.8
20180527203019 57 337 11.0 12.0 0.00 0.00 0.00 83 1021.8
20180527202518 58 337 6.0 10.0 0.00 0.00 0.00 83 1021.8
20180527202018 59 332 6.0 8.0 0.00 0.00 0.00 79 1021.8
20180527201548 59 327 3.0 4.0 0.00 0.00 0.00 80 1021.8
20180527201018 59 327 2.0 4.0 0.00 0.00 0.00 78 1021.8
20180527200517 59 327 1.0 4.0 0.00 0.00 0.00 80 1021.8
20180527200018 59 332 3.0 4.0 0.00 0.00 0.00 80 1021.8
20180527195517 59 332 2.0 5.0 0.00 0.00 0.00 78 1021.9
20180527195017 59 305 2.0 5.0 0.00 0.00 0.00 78 1021.8
20180527194517 59 10 3.0 6.0 0.00 0.00 0.00 79 1021.9
20180527194017 59 13 4.0 6.0 0.00 0.00 0.00 79 1021.9
20180527193517 59 13 4.0 6.0 0.00 0.00 0.00 77 1021.8
20180527193016 60 18 2.0 6.0 0.00 0.00 0.00 76 1021.9
20180527192517 60 15 2.0 4.0 0.00 0.00 0.00 76 1022.1
20180527192020 60 10 1.0 4.0 0.00 0.00 0.00 76 1022.1
20180527191519 59 10 3.0 4.0 0.00 0.00 0.00 76 1022.2
20180527191016 59 14 2.0 5.0 0.00 0.00 0.00 75 1022.2
20180527190516 59 15 3.0 5.0 0.00 0.00 0.00 73 1022.3
20180527190015 59 21 2.0 5.0 0.00 0.00 0.00 75 1022.3
20180527185515 58 26 4.0 5.0 0.00 0.00 0.00 77 1022.3
20180527185015 58 27 3.0 4.0 0.00 0.00 0.00 78 1022.4
20180527184517 58 28 1.0 4.0 0.00 0.00 0.00 77 1022.5
20180527184014 58 30 2.0 4.0 0.00 0.00 0.00 76 1022.5
20180527183514 57 31 3.0 3.0 0.00 0.00 0.00 80 1022.6
20180527183014 57 31 2.0 3.0 0.00 0.00 0.00 80 1022.6
20180527182514 57 33 3.0 4.0 0.00 0.00 0.00 78 1022.7
20180527182017 57 27 2.0 4.0 0.00 0.00 0.00 79 1022.8
20180527181514 57 23 2.0 4.0 0.00 0.00 0.00 79 1022.7
20180527181017 57 34 1.0 3.0 0.00 0.00 0.00 80 1022.8
20180527180513 57 35 2.0 3.0 0.00 0.00 0.00 80 1022.8
20180527180014 56 35 2.0 3.0 0.00 0.00 0.00 79 1022.9
20180527175513 56 35 2.0 3.0 0.00 0.00 0.00 80 1022.9
20180527175013 56 35 2.0 3.0 0.00 0.00 0.00 79 1022.9
20180527174513 56 35 1.0 3.0 0.00 0.00 0.00 80 1023.0
20180527174013 56 35 1.0 3.0 0.00 0.00 0.00 81 1023.0
20180527173516 56 37 2.0 3.0 0.00 0.00 0.00 81 1023.0
20180527173012 56 37 1.0 3.0 0.00 0.00 0.00 82 1023.1
20180527172512 56 37 1.0 3.0 0.00 0.00 0.00 82 1023.1
20180527172016 55 39 2.0 3.0 0.00 0.00 0.00 81 1023.1
20180527171515 55 39 2.0 3.0 0.00 0.00 0.00 82 1023.1
20180527171012 55 40 2.0 3.0 0.00 0.00 0.00 81 1023.2
20180527170512 56 40 1.0 3.0 0.00 0.00 0.00 82 1023.2
20180527170012 56 40 3.0 4.0 0.00 0.00 0.00 81 1023.2
20180527165511 56 40 2.0 4.0 0.00 0.00 0.00 81 1023.2
20180527165014 56 40 3.0 4.0 0.00 0.00 0.00 81 1023.3
20180527164511 56 40 3.0 4.0 0.00 0.00 0.00 80 1023.2
20180527164011 56 41 3.0 4.0 0.00 0.00 0.00 80 1023.3
20180527163514 55 41 3.0 3.0 0.00 0.00 0.00 80 1023.3
20180527163011 55 41 3.0 3.0 0.00 0.00 0.00 82 1023.3
20180527162511 55 41 2.0 3.0 0.00 0.00 0.00 84 1023.3
20180527162011 55 41 3.0 3.0 0.00 0.00 0.00 85 1023.3
20180527161514 55 41 2.0 3.0 0.00 0.00 0.00 84 1023.3
20180527161011 55 41 2.0 3.0 0.00 0.00 0.00 86 1023.3
20180527160510 54 41 3.0 3.0 0.00 0.00 0.00 84 1023.3
20180527160010 54 41 2.0 3.0 0.00 0.00 0.00 86 1023.3
20180527155510 54 41 2.0 3.0 0.00 0.00 0.00 86 1023.3
20180527155010 54 41 2.0 3.0 0.00 0.00 0.00 85 1023.3
20180527154509 54 41 2.0 3.0 0.00 0.00 0.00 85 1023.3
20180527154009 54 41 1.0 3.0 0.00 0.00 0.00 86 1023.3
20180527153512 54 41 2.0 3.0 0.00 0.00 0.00 85 1023.3
20180527153009 54 41 3.0 3.0 0.00 0.00 0.00 84 1023.3
20180527152509 54 41 2.0 3.0 0.00 0.00 0.00 83 1023.3
20180527152012 54 44 0.0 3.0 0.00 0.00 0.00 83 1023.4
20180527151512 54 44 2.0 2.0 0.00 0.00 0.00 84 1023.4
20180527151008 54 44 0.0 3.0 0.00 0.00 0.00 83 1023.4
20180527150508 54 44 0.0 4.0 0.00 0.00 0.00 82 1023.4
20180527150008 55 44 2.0 4.0 0.00 0.00 0.00 81 1023.4
20180527145508 56 98 2.0 4.0 0.00 0.00 0.00 80 1023.4
20180527145008 56 111 0.0 4.0 0.00 0.00 0.00 82 1023.4
20180527144511 55 111 2.0 4.0 0.00 0.00 0.00 83 1023.4
20180527144008 54 111 1.0 4.0 0.00 0.00 0.00 85 1023.5
20180527143507 53 114 2.0 6.0 0.00 0.00 0.00 86 1023.5
20180527143008 53 114 3.0 6.0 0.00 0.00 0.00 87 1023.5
20180527142507 53 139 1.0 6.0 0.00 0.00 0.00 87 1023.5
20180527142007 52 143 5.0 6.0 0.00 0.00 0.00 88 1023.5
20180527141507 52 119 4.0 5.0 0.00 0.00 0.00 88 1023.4
20180527141011 52 142 2.0 5.0 0.00 0.00 0.00 89 1023.5
20180527140507 51 118 2.0 5.0 0.00 0.00 0.00 89 1023.5
20180527140009 51 130 3.0 5.0 0.00 0.00 0.00 90 1023.5
20180527135506 51 140 4.0 5.0 0.00 0.00 0.00 90 1023.5
20180527135006 50 151 3.0 4.0 0.00 0.00 0.00 90 1023.6
20180527134506 50 170 2.0 3.0 0.00 0.00 0.00 90 1023.6
20180527134006 50 172 1.0 3.0 0.00 0.00 0.00 90 1023.6
20180527133505 50 179 3.0 3.0 0.00 0.00 0.00 90 1023.6
20180527133005 50 342 1.0 3.0 0.00 0.00 0.00 91 1023.6
20180527132506 49 337 0.0 1.0 0.00 0.00 0.00 91 1023.5
20180527132008 49 337 0.0 0.0 0.00 0.00 0.00 92 1023.6
20180527131505 49 337 0.0 0.0 0.00 0.00 0.00 92 1023.5
20180527131008 49 337 0.0 0.0 0.00 0.00 0.00 93 1023.6
20180527130505 49 337 0.0 0.0 0.00 0.00 0.00 93 1023.5
20180527130035 48 337 0.0 0.0 0.00 0.00 0.00 93 1023.6
20180527125504 48 337 0.0 1.0 0.00 0.00 0.00 93 1023.6
20180527125037 48 337 0.0 1.0 0.00 0.00 0.00 93 1023.6
20180527124507 47 337 0.0 2.0 0.00 0.00 0.00 93 1023.7
20180527124034 47 337 0.0 3.0 0.00 0.00 0.00 93 1023.6
20180527123507 47 337 2.0 3.0 0.00 0.00 0.00 92 1023.7
20180527123004 47 337 2.0 3.0 0.00 0.00 0.00 93 1023.7
20180527122534 48 337 1.0 2.0 0.00 0.00 0.00 93 1023.7
20180527122033 48 337 2.0 3.0 0.00 0.00 0.00 93 1023.7
20180527121506 48 337 1.0 3.0 0.00 0.00 0.00 93 1023.8
20180527121004 48 337 2.0 2.0 0.00 0.00 0.00 92 1023.8
20180527120533 48 337 0.0 1.0 0.00 0.00 0.00 92 1023.8
20180527120033 48 337 0.0 0.0 0.00 0.00 0.00 92 1023.7
20180527115503 48 337 0.0 0.0 0.00 0.00 0.00 93 1023.5
20180527115003 48 337 0.0 1.0 0.00 0.00 0.00 92 1023.5
20180527114532 48 337 0.0 1.0 0.00 0.00 0.00 92 1023.5
20180527114002 48 337 0.0 1.0 0.00 0.00 0.00 92 1023.4
20180527113502 48 337 0.0 1.0 0.00 0.00 0.00 92 1023.4
20180527113002 48 337 0.0 1.0 0.00 0.00 0.00 92 1023.3
20180527112532 48 337 0.0 1.0 0.00 0.00 0.00 92 1023.3
20180527112032 48 337 0.0 1.0 0.00 0.00 0.00 92 1023.3
20180527111532 48 337 0.0 0.0 0.00 0.00 0.00 92 1023.3
20180527111031 48 337 0.0 0.0 0.00 0.00 0.00 92 1023.3
20180527110531 48 337 0.0 0.0 0.00 0.00 0.00 91 1023.3
20180527110031 48 337 0.0 0.0 0.00 0.00 0.00 92 1023.3
20180527105531 48 337 0.0 0.0 0.00 0.00 0.00 91 1023.3
20180527105031 49 337 0.0 0.0 0.00 0.00 0.00 91 1023.3
20180527104531 49 337 0.0 0.0 0.00 0.00 0.00 91 1023.3
20180527104034 49 337 0.0 2.0 0.00 0.00 0.00 90 1023.3
20180527103530 49 337 0.0 2.0 0.00 0.00 0.00 89 1023.1
20180527103030 49 337 0.0 4.0 0.00 0.00 0.00 89 1023.1
20180527102530 49 337 0.0 4.0 0.00 0.00 0.00 89 1023.1
20180527102033 50 337 0.0 2.0 0.00 0.00 0.00 88 1023.1
20180527101530 50 337 0.0 2.0 0.00 0.00 0.00 88 1023.1
20180527101030 50 337 0.0 2.0 0.00 0.00 0.00 88 1023.2
20180527100533 51 337 0.0 3.0 0.00 0.00 0.00 87 1023.0
20180527100029 51 337 0.0 4.0 0.00 0.00 0.00 87 1023.0
20180527095530 51 337 2.0 5.0 0.00 0.00 0.00 87 1023.1
20180527095030 51 337 4.0 5.0 0.00 0.00 0.00 88 1023.0
20180527094529 51 337 4.0 7.0 0.00 0.00 0.00 88 1023.0
20180527094029 51 337 4.0 7.0 0.00 0.00 0.00 89 1022.9
20180527093532 50 342 3.0 6.0 0.00 0.00 0.00 90 1022.9
20180527093032 50 26 2.0 4.0 0.00 0.00 0.00 90 1022.8
20180527092529 50 270 2.0 3.0 0.00 0.00 0.00 90 1022.8
20180527092028 50 249 0.0 1.0 0.00 0.00 0.00 89 1022.8
20180527091528 50 249 0.0 3.0 0.00 0.00 0.00 89 1022.8
20180527091028 50 249 0.0 3.0 0.00 0.00 0.00 89 1022.7
20180527090528 50 249 0.0 2.0 0.00 0.00 0.00 88 1022.6
20180527090028 51 249 1.0 3.0 0.00 0.00 0.00 87 1022.5
20180527085528 51 249 0.0 6.0 0.00 0.00 0.00 86 1022.5
20180527085030 51 249 0.0 7.0 0.00 0.00 0.00 86 1022.5
20180527084527 52 358 1.0 8.0 0.00 0.00 0.00 85 1022.5
20180527084027 52 337 5.0 9.0 0.00 0.00 0.00 86 1022.5
20180527083527 52 323 8.0 9.0 0.00 0.00 0.00 86 1022.5
20180527083027 52 337 6.0 9.0 0.00 0.00 0.00 85 1022.5
20180527082527 52 327 8.0 9.0 0.00 0.00 0.00 85 1022.5
20180527082027 52 327 4.0 10.0 0.00 0.00 0.00 86 1022.5
20180527081526 52 332 6.0 10.0 0.00 0.00 0.00 86 1022.5
20180527081026 51 332 8.0 9.0 0.00 0.00 0.00 87 1022.5
20180527080527 51 304 4.0 8.0 0.00 0.00 0.00 85 1022.4
20180527080026 52 337 3.0 9.0 0.00 0.00 0.00 85 1022.4
20180527075529 52 327 3.0 9.0 0.00 0.00 0.00 84 1022.4
20180527075029 52 332 4.0 9.0 0.00 0.00 0.00 84 1022.5
20180527074526 52 306 5.0 9.0 0.00 0.00 0.00 85 1022.5
20180527074025 52 337 4.0 9.0 0.00 0.00 0.00 84 1022.5
20180527073526 52 332 6.0 9.0 0.00 0.00 0.00 85 1022.5
20180527073025 52 332 5.0 8.0 0.00 0.00 0.00 85 1022.4
20180527072525 52 337 6.0 10.0 0.00 0.00 0.00 85 1022.4
20180527072025 52 332 6.0 10.0 0.00 0.00 0.00 85 1022.4
20180527071525 52 341 9.0 10.0 0.00 0.00 0.00 85 1022.4
20180527071028 52 349 8.0 9.0 0.00 0.00 0.00 85 1022.4
20180527070525 52 347 7.0 9.0 0.00 0.00 0.00 86 1022.4
20180527070024 52 6 6.0 9.0 0.00 0.00 0.00 86 1022.4
20180527065525 52 357 8.0 9.0 0.00 0.00 0.00 88 1022.4
20180527065024 51 357 6.0 8.0 0.00 0.00 0.00 88 1022.3
20180527064524 51 359 5.0 5.0 0.00 0.00 0.00 87 1022.3
20180527064027 51 349 3.0 5.0 0.00 0.00 0.00 87 1022.4
20180527063523 52 350 4.0 5.0 0.00 0.00 0.00 86 1022.3
20180527063026 52 350 1.0 5.0 0.00 0.00 0.00 86 1022.3
20180527062524 52 349 2.0 5.0 0.00 0.00 0.00 86 1022.3
20180527062023 52 349 5.0 5.0 0.00 0.00 0.00 86 1022.3
20180527061523 52 347 4.0 5.0 0.00 0.00 0.00 85 1022.2
20180527061023 52 337 4.0 7.0 0.00 0.00 0.00 85 1022.2
20180527060523 52 343 3.0 7.0 0.00 0.00 0.00 85 1022.1
20180527060023 53 332 4.0 9.0 0.00 0.00 0.00 85 1022.1
20180527055525 53 332 5.0 9.0 0.00 0.00 0.00 85 1022.1
20180527055023 53 332 8.0 9.0 0.00 0.00 0.00 85 1022.0
20180527054525 53 337 6.0 10.0 0.00 0.00 0.00 85 1022.1
20180527054022 53 343 8.0 10.0 0.00 0.00 0.00 85 1022.1
20180527053525 53 341 7.0 10.0 0.00 0.00 0.00 85 1022.0
20180527053022 53 332 5.0 11.0 0.00 0.00 0.00 85 1022.1
20180527052522 53 341 7.0 11.0 0.00 0.00 0.00 85 1022.0
20180527052022 53 337 9.0 11.0 0.00 0.00 0.00 85 1021.9
20180527051522 53 342 10.0 10.0 0.00 0.00 0.00 85 1021.9
20180527051024 53 346 9.0 10.0 0.00 0.00 0.00 85 1021.8
20180527050521 53 345 9.0 12.0 0.00 0.00 0.00 84 1021.8
20180527050021 53 337 10.0 12.0 0.00 0.00 0.00 84 1021.8
20180527045521 53 337 9.0 12.0 0.00 0.00 0.00 84 1021.8
20180527045021 53 341 11.0 11.0 0.00 0.00 0.00 84 1021.8
20180527044524 53 341 10.0 11.0 0.00 0.00 0.00 84 1021.7
20180527044023 53 343 9.0 11.0 0.00 0.00 0.00 84 1021.7
20180527043520 53 343 9.0 11.0 0.00 0.00 0.00 83 1021.6
20180527043023 53 341 9.0 11.0 0.00 0.00 0.00 83 1021.6
20180527042523 54 337 10.0 12.0 0.00 0.00 0.00 82 1021.5
20180527042020 54 342 10.0 12.0 0.00 0.00 0.00 82 1021.5
20180527041523 53 337 8.0 11.0 0.00 0.00 0.00 83 1021.5
20180527041049 53 332 9.0 11.0 0.00 0.00 0.00 83 1021.4
20180527040523 53 337 9.0 10.0 0.00 0.00 0.00 84 1021.4
20180527040019 53 304 6.0 7.0 0.00 0.00 0.00 85 1021.4
20180527035522 53 283 5.0 7.0 0.00 0.00 0.00 85 1021.4
20180527035022 53 270 0.0 5.0 0.00 0.00 0.00 85 1021.4
20180527034522 53 264 0.0 4.0 0.00 0.00 0.00 84 1021.4
20180527034018 53 264 2.0 5.0 0.00 0.00 0.00 84 1021.3
20180527033519 53 263 4.0 7.0 0.00 0.00 0.00 84 1021.3
20180527033019 54 276 2.0 7.0 0.00 0.00 0.00 84 1021.2
20180527032519 54 293 5.0 6.0 0.00 0.00 0.00 84 1021.3
20180527032018 54 275 0.0 4.0 0.00 0.00 0.00 84 1021.2
20180527031521 54 275 1.0 4.0 0.00 0.00 0.00 84 1021.2
20180527031021 54 275 0.0 6.0 0.00 0.00 0.00 84 1021.2
20180527030521 54 276 2.0 6.0 0.00 0.00 0.00 84 1021.2
20180527030021 54 260 3.0 8.0 0.00 0.00 0.00 85 1021.2
20180527025521 54 287 5.0 9.0 0.00 0.00 0.00 84 1021.2
20180527025017 54 332 4.0 9.0 0.00 0.00 0.00 84 1021.1
20180527024517 54 332 5.0 8.0 0.00 0.00 0.00 83 1021.1
20180527024017 54 288 5.0 7.0 0.00 0.00 0.00 84 1021.1
20180527023520 55 298 5.0 7.0 0.00 0.00 0.00 84 1021.1
20180527023016 55 332 5.0 10.0 0.00 0.00 0.00 83 1021.1
20180527022516 55 341 5.0 10.0 0.00 0.00 0.00 82 1021.1
20180527022016 55 337 8.0 10.0 0.00 0.00 0.00 82 1021.0
20180527021519 55 332 9.0 10.0 0.00 0.00 0.00 82 1021.1
20180527021019 55 337 8.0 10.0 0.00 0.00 0.00 83 1021.1
20180527020516 55 337 8.0 10.0 0.00 0.00 0.00 83 1021.1
20180527020019 55 332 6.0 8.0 0.00 0.00 0.00 83 1021.1
20180527015519 55 327 6.0 8.0 0.00 0.00 0.00 82 1021.2
20180527015015 56 341 7.0 7.0 0.00 0.00 0.00 82 1021.2
20180527014515 56 261 2.0 4.0 0.00 0.00 0.00 82 1021.2
20180527014014 56 259 2.0 4.0 0.00 0.00 0.00 83 1021.2
20180527013515 56 259 3.0 7.0 0.00 0.00 0.00 83 1021.3
20180527013015 55 260 0.0 7.0 0.00 0.00 0.00 83 1021.3
20180527012514 55 287 5.0 7.0 0.00 0.00 0.00 83 1021.3
20180527012017 55 261 4.0 9.0 0.00 0.00 0.00 83 1021.3
20180527011514 55 293 2.0 10.0 0.00 0.00 0.00 83 1021.4